This is the latest recevied weather packets stored in our database for station/object IW2HNF-3. If no packets are shown the sender has not sent any weather packets the latest 10 day(s).
| Time | Temp. | Humidity | Pressure | Rain* | Wind** | Luminosity | Snow |
|---|---|---|---|---|---|---|---|
| 1777366265 | 18.89° C | 64% | 1015.2 hPa | 0 mm | - | - | - |
| 1777365641 | 18.89° C | 65% | 1015.1 hPa | 0 mm | - | - | - |
| 1777365067 | 18.89° C | 66% | 1015.1 hPa | 0 mm | - | - | - |
| 1777364441 | 18.33° C | 67% | 1015 hPa | 0 mm | - | - | - |
| 1777363865 | 17.78° C | 67% | 1015 hPa | 0 mm | - | - | - |
| 1777363673 | 17.78° C | 67% | 1015.1 hPa | 0 mm | - | - | - |
| 1777362665 | 17.78° C | 69% | 1015 hPa | 0 mm | - | - | - |
| 1777362041 | 17.22° C | 72% | 1015 hPa | 0.25 mm | - | - | - |
| 1777361465 | 17.22° C | 74% | 1014.8 hPa | 0.25 mm | - | - | - |
| 1777360841 | 16.11° C | 75% | 1014.7 hPa | 0.25 mm | - | - | - |
| 1777360265 | 16.11° C | 75% | 1014.7 hPa | 0.25 mm | - | - | - |
| 1777359641 | 16.11° C | 74% | 1014.7 hPa | 0.25 mm | - | - | - |
| 1777359066 | 16.11° C | 73% | 1014.9 hPa | 0.25 mm | - | - | - |
| 1777358441 | 16.11° C | 71% | 1014.9 hPa | 0 mm | - | - | - |
| 1777357866 | 16.11° C | 71% | 1014.9 hPa | 0 mm | - | - | - |
| 1777357241 | 16.11° C | 70% | 1014.9 hPa | 0 mm | - | - | - |
| 1777356665 | 16.11° C | 70% | 1014.8 hPa | 0 mm | - | - | - |
| 1777356473 | 16.11° C | 71% | 1014.8 hPa | 0 mm | - | - | - |
| 1777355466 | 16.11° C | 72% | 1014.8 hPa | 0 mm | - | - | - |
| 1777354841 | 15.56° C | 73% | 1014.7 hPa | 0 mm | - | - | - |
| 1777354265 | 15.56° C | 75% | 1014.5 hPa | 0 mm | - | - | - |
| 1777353642 | 15° C | 75% | 1014.4 hPa | 0 mm | - | - | - |
| 1777353065 | 15° C | 75% | 1014.3 hPa | 0 mm | - | - | - |
| 1777352442 | 15° C | 75% | 1014.4 hPa | 0 mm | - | - | - |
| 1777351865 | 15° C | 74% | 1014.2 hPa | 0 mm | - | - | - |
* Rain latest hour (hover to see other rain measurements)
** Current wind speed in m/s (hover to see current wind gust speed)